Location: Unspecified
(17.6330°N, 0.0000°E)
Time: 14:22:24
(UTC+00:00)

S-56A Canister/Altair - All Passes

Search period start: 25 June 2019 00:00
Search period end: 05 July 2019 00:00
Orbit: 633 x 2499 km, 38.9° (Epoch: 25 June)

Date Brightness Start Highest point End Pass type
(mag) Time Alt. Az. Time Alt. Az. Time Alt. Az.
25 Jun - 09:40:36 10° S 09:49:37 18° SE 09:57:58 10° E daylight
25 Jun - 11:41:51 10° SW 11:56:23 59° SE 12:07:30 10° ENE daylight
25 Jun - 13:49:25 10° WSW 14:02:33 54° NW 14:11:40 10° NE daylight
25 Jun - 16:01:53 10° WNW 16:08:52 20° NNW 16:14:17 10° NNE daylight
25 Jun - 18:13:59 10° NNW 18:16:01 11° N 18:17:52 10° NNE daylight
25 Jun - 20:17:45 10° NNW 20:22:07 25° NNE 20:25:53 10° E visible
25 Jun - 22:21:44 10° WNW 22:25:55 37° SW 22:30:09 10° SSE visible
26 Jun - 09:08:35 10° SSE 09:16:05 15° SE 09:23:16 10° ESE daylight
26 Jun - 11:08:28 10° SSW 11:22:55 53° SE 11:34:29 10° ENE daylight
26 Jun - 13:15:19 10° WSW 13:29:15 62° NW 13:39:07 10° NE daylight
26 Jun - 15:27:17 10° WNW 15:35:40 23° NNW 15:42:01 10° NNE daylight
26 Jun - 17:39:58 10° NNW 17:42:56 12° N 17:45:34 10° NNE daylight
26 Jun - 19:44:57 10° NNW 19:49:23 22° NNE 19:53:05 10° ENE visible
26 Jun - 21:48:54 10° WNW 21:53:27 49° SW 21:57:45 10° SE visible
27 Jun - 08:37:20 10° SSE 08:42:33 12° SE 08:47:41 10° ESE daylight
27 Jun - 10:35:12 10° SSW 10:49:23 48° SE 11:01:18 10° ENE daylight
27 Jun - 12:41:18 10° WSW 12:55:52 69° NW 13:06:29 10° NE daylight
27 Jun - 14:52:43 10° WNW 15:02:26 27° NNW 15:09:40 10° NNE daylight
27 Jun - 17:05:49 10° NNW 17:09:49 14° N 17:13:14 10° NNE daylight
27 Jun - 19:12:02 10° NNW 19:16:35 21° NNE 19:20:19 10° ENE visible
27 Jun - 21:16:03 10° WNW 21:20:59 66° SW 21:25:21 10° SE visible
28 Jun - 10:02:05 10° SSW 10:15:50 42° SE 10:27:58 10° ENE daylight
28 Jun - 12:07:25 10° WSW 12:22:26 77° NW 12:33:45 10° NE daylight
28 Jun - 14:18:10 10° W 14:29:09 31° NNW 14:37:15 10° NNE daylight
28 Jun - 16:31:30 10° NW 16:36:39 16° N 16:40:52 10° NNE daylight
28 Jun - 18:38:57 10° NNW 18:43:43 20° NNE 18:47:33 10° ENE daylight
28 Jun - 20:43:10 10° NW 20:48:30 87° SW 20:52:55 10° SE visible
29 Jun - 09:29:07 10° SSW 09:42:18 37° SE 09:54:27 10° ENE daylight
29 Jun - 11:33:39 10° SW 11:48:55 85° NW 12:00:56 10° NE daylight
29 Jun - 13:43:41 10° W 13:55:46 36° NNW 14:04:44 10° NE daylight
29 Jun - 15:57:06 10° NW 16:03:24 17° N 16:08:27 10° NNE daylight
29 Jun - 18:05:42 10° NNW 18:10:47 19° NNE 18:14:49 10° ENE daylight
29 Jun - 20:10:14 10° NW 20:15:58 74° NE 20:20:28 10° ESE visible
30 Jun - 08:56:19 10° SSW 09:08:45 33° SE 09:20:44 10° ENE daylight
30 Jun - 11:00:01 10° SW 11:15:21 87° SE 11:28:00 10° NE daylight
30 Jun - 13:09:17 10° W 13:22:19 40° NNW 13:32:09 10° NE daylight
30 Jun - 15:22:36 10° NW 15:30:05 20° NNW 15:35:59 10° NNE daylight
30 Jun - 17:32:16 10° NNW 17:37:46 19° N 17:42:06 10° NE daylight
30 Jun - 19:37:14 10° NW 19:43:23 60° NNE 19:48:00 10° ESE visible
30 Jun - 21:44:14 10° WSW 21:46:35 13° SW 21:48:49 10° SSW visible
01 Jul - 08:23:43 10° S 08:35:14 28° SE 08:46:46 10° E daylight
01 Jul - 10:26:31 10° SW 10:41:45 79° SE 10:54:57 10° NE daylight
01 Jul - 12:34:59 10° W 12:48:49 45° NNW 12:59:28 10° NE daylight
01 Jul - 14:48:01 10° WNW 14:56:42 22° NNW 15:03:26 10° NE daylight
01 Jul - 16:58:38 10° NW 17:04:41 19° N 17:09:22 10° NE daylight
01 Jul - 19:04:10 10° NW 19:10:44 50° NNE 19:15:30 10° ESE visible
01 Jul - 21:10:33 10° W 21:14:06 19° SW 21:17:17 10° S visible
02 Jul - 07:51:21 10° S 08:01:46 24° SE 08:12:30 10° E daylight
02 Jul - 09:53:10 10° SW 10:08:07 72° SE 10:21:47 10° ENE daylight
02 Jul - 12:00:49 10° WSW 12:15:14 51° NNW 12:26:42 10° NE daylight
02 Jul - 14:13:24 10° WNW 14:23:15 24° NNW 14:30:52 10° NE daylight
02 Jul - 16:24:51 10° NW 16:31:31 20° N 16:36:39 10° NE daylight
02 Jul - 18:30:59 10° NW 18:37:59 44° NNE 18:42:58 10° E daylight
02 Jul - 20:37:06 10° WNW 20:41:38 26° SW 20:45:27 10° S visible
03 Jul - 07:19:17 10° S 07:28:20 20° SE 07:37:51 10° E daylight
03 Jul - 09:19:57 10° SW 09:34:30 65° SE 09:48:29 10° ENE daylight
03 Jul - 11:26:48 10° WSW 11:41:36 56° NNW 11:53:52 10° NE daylight
03 Jul - 13:38:48 10° WNW 13:49:42 27° NNW 13:58:12 10° NE daylight
03 Jul - 15:50:52 10° NW 15:58:15 21° N 16:03:55 10° NE daylight
03 Jul - 17:57:42 10° NW 18:05:10 39° NNE 18:10:24 10° E daylight
03 Jul - 20:03:42 10° WNW 20:09:11 35° SW 20:13:28 10° SSE visible
04 Jul - 06:47:40 10° SSE 06:54:57 16° SE 07:02:40 10° E daylight
04 Jul - 08:46:54 10° SSW 09:00:53 58° SE 09:15:02 10° ENE daylight
04 Jul - 10:52:56 10° WSW 11:07:55 62° NNW 11:20:55 10° NE daylight
04 Jul - 13:04:15 10° WNW 13:16:06 30° NNW 13:25:29 10° NE daylight
04 Jul - 15:16:45 10° NW 15:24:54 22° N 15:31:10 10° NE daylight
04 Jul - 17:24:19 10° NW 17:32:15 36° NNE 17:37:46 10° E daylight
04 Jul - 19:30:20 10° WNW 19:36:42 46° SW 19:41:22 10° SSE visible
